Location: Acheville
(50.3840°N, 2.8827°E)
Time: 01:30:26
(UTC+00:00)

FENGYUN 1C DEB - Pass Details

Date: 08 February 2023
Orbit: 634 x 940 km, 98.3° (Epoch: 28 March)

Event Time Altitude Azimuth Distance (km) Brightness Sun altitude
Rises 17:20:33 0° 166° (SSE) 3,185 ? -4.9°
Reaches altitude 10° 17:22:55 10° 167° (SSE) 2,220 ? -5.3°
Maximum altitude 17:27:45 82° 256° (WSW) 703 ? -6.0°
Drops below altitude 10° 17:32:18 10° 344° (NNW) 2,088 ? -6.7°
Sets 17:34:28 0° 345° (NNW) 2,981 ? -7.0°
